[[{"header":{"parameterUnit":"m.s-1","parameterCategory":1,"la1":30.2991,"la2":30.254,"lo1":-89.0895,"lo2":-89.0444,"dy":0.0017,"dx":0.0017,"nx":28,"ny":28,"refTime":"2024-07-24T09:00:00:Z","depth":0,"parameterNumber":2,"parameterNumberName":"U-component_of_WINDS"},"data":[0,0,0,0,0,0,0,0,0,0,0,0,0,0,0,0,0,0,0,0,0,0,0,0,0,0,0,0,0,0,0,0,0,0,0,0,0,0,0,0,0,0,0,0,0,0,0,0,0,0,0,0,0,0,0,0,0,0,1.25,1.25,0,1.2493,1.2493,1.2493,1.2467,1.2466,1.2465,1.2465,1.2459,1.246,1.246,0,0,0,0,0,0,0,0,0,0,0,0,0,1.249,1.2491,1.25,1.25,1.25,1.2493,1.2493,1.2493,1.2467,1.2466,1.2465,1.2465,1.2459,1.246,1.246,0,0,0,0,0,0,0,0,0,0,0,0,0,1.249,1.2491,1.25,1.2486,1.2484,1.2493,1.2493,1.2493,1.2467,1.2466,1.2465,1.2464,1.2459,1.246,1.246,1.2483,0,0,1.2462,1.2462,0,0,0,0,0,0,0,0,1.249,1.2491,1.2488,1.2487,1.2485,1.248,1.2488,1.249,1.2467,1.2474,1.2465,1.2464,1.2467,1.2467,1.2468,1.2482,1.2482,1.2462,1.2463,1.2463,1.2463,0,0,0,0,0,0,0,1.249,1.2491,1.2497,1.2488,1.2486,1.248,1.2479,1.2488,1.2476,1.2473,1.2471,1.2471,1.2466,1.2467,1.2467,1.2482,1.2462,1.2463,1.2463,1.2463,1.2514,1.2515,0,0,0,0,0,0,1.2492,1.2491,1.2498,1.2497,1.2486,1.2481,1.248,1.2483,1.2475,1.2473,1.2471,1.2469,1.2467,1.2467,1.2467,1.2492,1.2463,1.2463,1.2464,1.2513,1.2514,1.2515,0,0,0,0,0,0,1.2492,1.2493,1.2498,1.2494,1.2494,1.2482,1.2485,1.2483,1.2484,1.2474,1.2472,1.2475,1.2466,1.2466,1.2479,1.2492,1.2464,1.2464,1.2512,1.2514,1.2515,1.2543,0,0,0,0,0,0,1.2492,1.2493,1.2501,1.2494,1.2494,1.2509,1.2486,1.2484,1.2485,1.2482,1.2477,1.2475,1.2465,1.2478,1.2479,1.2492,1.2465,1.2511,1.2513,1.2514,1.2541,1.2545,1.2549,0,0,0,0,0,1.2492,1.251,1.2502,1.2503,1.2504,1.251,1.251,1.2498,1.2486,1.2494,1.2488,1.2475,1.249,1.2479,1.2481,1.2494,1.251,1.2512,1.2514,1.2539,1.2544,1.2549,0,0,0,0,0,0,1.2519,1.2509,1.25,1.2516,1.2514,1.2506,1.2516,1.2505,1.2506,1.2504,1.2489,1.2488,1.2503,1.25,1.2488,1.2515,1.2498,1.25,1.2516,1.2521,1.2525,1.2525,1.2465,0,0,0,0,0,1.2527,1.2533,1.2524,1.2539,1.2538,1.2527,1.253,1.2521,1.2518,1.2517,1.2512,1.2511,1.2515,1.2518,1.2522,1.2541,1.2539,1.255,1.2554,1.2558,1.256,1.2569,1.2574,1.2523,1.2523,1.2523,0,0,1.2544,1.2539,1.2543,1.2544,1.2542,1.2548,1.2527,1.2535,1.2539,1.2519,1.253,1.2526,1.2523,1.2539,1.2546,1.2537,1.2574,1.256,1.2563,1.2563,1.2572,1.2576,1.2581,1.2524,1.2524,1.2524,0,0,1.2577,1.2574,1.2586,1.2584,1.258,1.2573,1.2576,1.2569,1.2566,1.2577,1.2561,1.2567,1.2575,1.2573,1.2574,1.2606,1.2594,1.2608,1.2629,1.2638,1.2642,1.2645,1.2656,1.266,1.261,1.261,1.2611,0,1.2598,1.2607,1.2594,1.2602,1.2603,1.2585,1.2597,1.2595,1.2593,1.2594,1.2585,1.2594,1.2591,1.2606,1.2614,1.2615,1.2617,1.2608,1.2642,1.2646,1.2649,1.2659,1.2663,1.2612,1.2612,1.2612,1.2612,0,1.2632,1.2639,1.2649,1.2647,1.2649,1.2659,1.2648,1.2651,1.2642,1.2636,1.2647,1.2643,1.2645,1.2648,1.264,1.2662,1.2656,1.2645,1.2627,1.2655,1.2665,1.2669,1.2614,1.2614,1.2613,1.2613,0,0,1.2682,1.2672,1.2676,1.2675,1.267,1.2674,1.2684,1.2686,1.2689,1.2688,1.2696,1.2703,1.2692,1.2692,1.2684,1.2692,1.2717,1.2679,1.2679,1.2686,1.274,1.2748,1.2753,1.271,1.271,1.2711,1.274,0,1.2712,1.2727,1.2716,1.2733,1.2739,1.2722,1.273,1.2728,1.2722,1.2726,1.2721,1.2725,1.2711,1.2711,1.2719,1.2712,1.2728,1.271,1.2716,1.2716,1.2716,1.2758,1.2766,1.2794,1.2744,1.2744,1.2745,0,1.275,1.275,1.2768,1.2761,1.2763,1.2771,1.2771,1.2775,1.2773,1.2768,1.2768,1.2758,1.2767,1.275,1.2762,1.2751,1.2752,1.275,1.2751,1.275,1.2731,1.2757,1.2803,1.2806,1.2751,1.275,1.275,0,1.2783,1.2788,1.2799,1.2799,1.2792,1.2797,1.2794,1.2791,1.2792,1.2793,1.2794,1.2796,1.2797,1.2799,1.2789,1.2778,1.2802,1.2785,1.2798,1.2798,1.2803,1.2802,1.2848,1.2806,1.2806,1.2806,1.2806,0,1.2818,1.2829,1.2814,1.282,1.2832,1.282,1.2832,1.2828,1.2825,1.283,1.2816,1.2822,1.2809,1.2813,1.2806,1.2816,1.2817,1.2813,1.2811,1.2814,1.2814,1.2814,1.2811,1.2807,1.2807,1.2806,1.2806,0,1.2856,1.2846,1.2857,1.2849,1.2848,1.2857,1.285,1.2856,1.285,1.2857,1.2858,1.2848,1.2853,1.2843,1.2847,1.2841,1.2856,1.2851,1.2857,1.2855,1.2868,1.2867,1.2914,1.292,1.2875,1.2876,1.2876,0,1.2878,1.2886,1.2879,1.2882,1.288,1.2884,1.2885,1.2874,1.2876,1.2873,1.2879,1.2883,1.2884,1.2892,1.2885,1.2888,1.2882,1.2899,1.2882,1.2885,1.2881,1.288,1.2881,1.2902,1.2902,1.2903,1.2903,0,1.2918,1.2913,1.2915,1.2916,1.2918,1.2918,1.2917,1.292,1.2908,1.2911,1.2915,1.2916,1.2919,1.2922,1.2923,1.2921,1.291,1.2909,1.2911,1.2914,1.2916,1.2914,1.2865,1.2907,1.2907,1.2906,1.2906,1.2906,1.2948,1.2954,1.295,1.2953,1.2951,1.2951,1.2956,1.295,1.2953,1.2954,1.2947,1.2953,1.295,1.295,1.2949,1.2953,1.2945,1.295,1.2951,1.2952,1.2953,1.2917,1.2953,1.2953,1.2953,1.2953,1.2953,0,1.2986,1.2983,1.2986,1.2985,1.2987,1.2977,1.2975,1.2978,1.2983,1.2981,1.2983,1.2988,1.2991,1.2984,1.2986,1.2991,1.2986,1.2992,1.2991,1.299,1.296,1.2957,1.2996,1.2996,1.2996,1.2996,1.2996,1.2996,1.3006,1.3015,1.301,1.3018,1.3015,1.302,1.302,1.3019,1.3018,1.3023,1.3026,1.3021,1.3018,1.302,1.3022,1.302,1.3021,1.3028,1.3025,1.2997,1.2992,1.2988,1.2985,1.3029,1.3029,1.3054,1.3054,1.3054]},{"header":{"parameterUnit":"m.s-1","parameterCategory":1,"la1":30.2991,"la2":30.254,"lo1":-89.0895,"lo2":-89.0444,"dy":0.0017,"dx":0.0017,"nx":28,"ny":28,"refTime":"2024-07-24T09:00:00:Z","depth":0,"parameterNumber":3,"parameterNumberName":"V-component_of_WINDS"},"data":[0,0,0,0,0,0,0,0,0,0,0,0,0,0,0,0,0,0,0,0,0,0,0,0,0,0,0,0,0,0,0,0,0,0,0,0,0,0,0,0,0,0,0,0,0,0,0,0,0,0,0,0,0,0,0,0,0,0,3.9774,3.9774,0,3.9796,3.9796,3.9796,3.9808,3.9809,3.9809,3.9809,3.9828,3.9828,3.9829,0,0,0,0,0,0,0,0,0,0,0,0,0,3.974,3.9741,3.9774,3.9774,3.9774,3.9795,3.9796,3.9796,3.9808,3.9809,3.9809,3.9809,3.9828,3.9828,3.9829,0,0,0,0,0,0,0,0,0,0,0,0,0,3.9758,3.9741,3.9774,3.9783,3.9784,3.9795,3.9796,3.9796,3.9808,3.9809,3.9809,3.9809,3.9827,3.9828,3.9829,3.9831,0,0,3.9831,3.9831,0,0,0,0,0,0,0,0,3.9757,3.9759,3.9781,3.9782,3.9784,3.9799,3.9791,3.9808,3.9808,3.9799,3.9809,3.9809,3.9818,3.982,3.9823,3.9832,3.9833,3.9831,3.9831,3.9832,3.9832,0,0,0,0,0,0,0,3.9755,3.9758,3.9782,3.9782,3.9783,3.9785,3.9788,3.9794,3.9808,3.98,3.9801,3.9803,3.9819,3.9823,3.9824,3.9833,3.9831,3.9832,3.9832,3.9832,3.9846,3.9846,0,0,0,0,0,0,3.9753,3.9757,3.9782,3.9783,3.977,3.9786,3.9789,3.9794,3.9808,3.981,3.9803,3.9804,3.9821,3.9823,3.9825,3.9829,3.9832,3.9832,3.9833,3.9846,3.9846,3.9846,0,0,0,0,0,0,3.9752,3.9755,3.9781,3.977,3.9774,3.9786,3.9792,3.9795,3.9799,3.981,3.9813,3.9805,3.9822,3.9824,3.983,3.983,3.9833,3.9833,3.9846,3.9846,3.9846,3.9837,0,0,0,0,0,0,3.9751,3.9755,3.9757,3.977,3.9774,3.9786,3.9792,3.9795,3.98,3.9801,3.9813,3.9815,3.9822,3.9829,3.9831,3.9831,3.9834,3.9846,3.9846,3.9846,3.9838,3.9837,3.9836,0,0,0,0,0,3.975,3.9752,3.9757,3.9759,3.9777,3.9786,3.9789,3.9798,3.98,3.9802,3.9809,3.9814,3.983,3.9829,3.9832,3.9832,3.9846,3.9846,3.9846,3.9838,3.9837,3.9836,0,0,0,0,0,0,3.9737,3.9754,3.9759,3.9766,3.9775,3.9789,3.9791,3.9796,3.9804,3.9804,3.9814,3.9817,3.9822,3.9828,3.9827,3.9835,3.9838,3.9839,3.9832,3.9831,3.983,3.9829,3.9834,0,0,0,0,0,3.9735,3.9742,3.9757,3.9761,3.9766,3.9777,3.9782,3.9789,3.9797,3.9801,3.9809,3.9817,3.9823,3.9827,3.9834,3.9839,3.9841,3.984,3.9839,3.9839,3.9839,3.9842,3.9841,3.9846,3.9846,3.9846,0,0,3.9731,3.9741,3.9745,3.9759,3.9767,3.9773,3.978,3.9787,3.9792,3.9801,3.9808,3.9815,3.9824,3.983,3.9832,3.9834,3.9838,3.9838,3.9838,3.9838,3.9841,3.9841,3.9841,3.9846,3.9846,3.9846,0,0,3.9726,3.9735,3.974,3.9748,3.976,3.9768,3.9769,3.9782,3.9787,3.9795,3.9802,3.9808,3.9819,3.9825,3.983,3.9829,3.9834,3.9831,3.9827,3.983,3.983,3.983,3.9829,3.9829,3.9831,3.9831,3.9831,0,3.9719,3.9731,3.9742,3.9749,3.9755,3.9765,3.977,3.9777,3.979,3.9793,3.9795,3.981,3.9817,3.9825,3.9824,3.9828,3.9829,3.983,3.9829,3.9829,3.9829,3.9829,3.9829,3.9831,3.9831,3.9831,3.9831,0,3.9721,3.9729,3.9732,3.9746,3.9752,3.9758,3.9769,3.9774,3.978,3.9787,3.9795,3.9804,3.9813,3.9815,3.982,3.9823,3.9824,3.9828,3.9831,3.9828,3.9828,3.9828,3.983,3.983,3.983,3.983,0,0,3.9708,3.973,3.973,3.9737,3.9752,3.9757,3.9763,3.9773,3.9777,3.9786,3.9791,3.9801,3.9805,3.981,3.9816,3.9819,3.9818,3.9822,3.9822,3.9821,3.9821,3.9819,3.9818,3.9821,3.9821,3.9821,3.9821,0,3.9706,3.9719,3.973,3.9738,3.9746,3.9756,3.9762,3.977,3.9778,3.9784,3.9792,3.9799,3.9803,3.9807,3.981,3.9817,3.9818,3.9817,3.9825,3.9826,3.9823,3.9818,3.9815,3.9814,3.9821,3.9821,3.9821,0,3.9705,3.9715,3.9725,3.9739,3.9743,3.9748,3.9758,3.9764,3.9775,3.978,3.9786,3.9793,3.98,3.9803,3.9811,3.9811,3.9814,3.9819,3.9819,3.982,3.9823,3.9819,3.9814,3.9814,3.9821,3.9821,3.9821,0,3.9695,3.9711,3.9719,3.9724,3.9741,3.9744,3.9751,3.9762,3.9767,3.9776,3.978,3.9789,3.9793,3.98,3.9808,3.981,3.9816,3.982,3.982,3.982,3.982,3.982,3.9816,3.9823,3.9823,3.9823,3.9823,0,3.9691,3.9697,3.9715,3.9719,3.9726,3.9738,3.9744,3.9751,3.9761,3.9767,3.9776,3.9781,3.9793,3.9799,3.9806,3.9812,3.9814,3.9818,3.9819,3.9817,3.9816,3.9819,3.982,3.9823,3.9823,3.9823,3.9823,0,3.9681,3.9693,3.9702,3.9719,3.9723,3.9727,3.974,3.9745,3.9753,3.976,3.9763,3.9775,3.9783,3.9793,3.9804,3.9808,3.9814,3.9816,3.9811,3.9812,3.9811,3.9811,3.9809,3.9809,3.9816,3.9816,3.9816,0,3.9677,3.9682,3.9699,3.9705,3.9712,3.972,3.9727,3.9739,3.9745,3.9757,3.976,3.9769,3.9777,3.979,3.9799,3.9807,3.981,3.9809,3.9811,3.9809,3.981,3.981,3.981,3.9808,3.9808,3.9808,3.9808,0,3.967,3.9677,3.9686,3.9698,3.9705,3.9715,3.9724,3.9728,3.9742,3.9748,3.9757,3.9763,3.9775,3.9784,3.9794,3.98,3.9806,3.9807,3.9807,3.9805,3.9801,3.9803,3.9809,3.9807,3.9807,3.9807,3.9807,3.9807,3.9663,3.9668,3.9682,3.9692,3.9701,3.971,3.9715,3.9725,3.9733,3.9745,3.9751,3.976,3.9771,3.9785,3.9791,3.9797,3.9799,3.98,3.98,3.98,3.9799,3.98,3.9799,3.9799,3.9799,3.9799,3.9799,0,3.9657,3.9666,3.9676,3.969,3.9698,3.9705,3.9716,3.9722,3.973,3.974,3.9748,3.9759,3.9767,3.9778,3.9787,3.979,3.9793,3.9792,3.9792,3.9793,3.9797,3.9796,3.979,3.979,3.979,3.979,3.979,3.979,3.9654,3.9663,3.9671,3.9685,3.9694,3.9704,3.971,3.9718,3.9726,3.9738,3.9746,3.9754,3.9764,3.9774,3.9782,3.9785,3.9788,3.9786,3.9789,3.9792,3.9793,3.9794,3.9793,3.9786,3.9786,3.9785,3.9785,3.9785]}]]